Location: Newark
(13.8117°N, 3.6025°W)
Time: 15:20:44
(UTC+00:00)

Vanguard 2 - Pass Details

Date: 28 August 2019
Orbit: 554 x 2937 km, 32.9° (Epoch: 18 September)

Event Time Altitude Azimuth Distance (km) Brightness Sun altitude
Rises 06:46:40 0° 209° (SSW) 3,565 10.6 9.7°
Reaches altitude 10° 06:50:36 10° 187° (S) 2,265 9.8 10.7°
Maximum altitude 06:53:33 15° 151° (SSE) 1,713 9.7 11.4°
Drops below altitude 10° 06:56:07 10° 113° (ESE) 1,911 10.8 12.0°
Sets 06:58:59 0° 88° (E) 2,723 12.4 12.7°
